Home > Weather > Terre Haute > Past weeks

Flag for USA Past Weather in Terre Haute, Indiana, USA — Yesterday and Last 2 Weeks

Now
74 °F

Fog.


Feels Like: 71 °F
Forecast: 72 / 84 °F
Wind: No wind

Location: Terre Haute International Airport - Hulman Field

Current Time: Jul 28, 2016 at 8:25:40 AM

Latest Report: Jul 28, 2016 at 7:53 AM


Visibility: 5 mi

Pressure: 29.89 "Hg

Humidity: 94%

Dew Point: 72 °F

Location of Terre HauteLocation

Past Weather in Terre Haute — Graph

°F

Terre Haute Temperature Yesterday

Maximum temperature yesterday: 88 °F (at 4:53 PM)
Minimum temperature yesterday: 67 °F (at 4:53 AM)
Average temperature yesterday: 78 °F

High & Low Weather Summary for the Past Weeks

 TemperatureHumidityPressure
High92 °F (Jul 24, 3:53 PM)96% (Jul 19, 6:03 AM)30.25 "Hg (Jul 19, 6:03 AM)
Low62 °F (Jul 16, 4:53 AM)48% (Jul 14, 4:53 PM)29.86 "Hg (Jul 28, 4:53 AM)
Average78 °F78%30.04 "Hg
* Reported Jul 13 6:53 AM — Jul 28 6:53 AM, Terre Haute, Weather by CustomWeather, © 2016

Note: Actual official high and low records may vary slightly from our data, if they occured in-between our weather recording intervals... More about our weather records

Advertising

Terre Haute Weather History for the Previous 24 Hours

Scroll right to see more
 ConditionsComfort  
Time TempWeatherWind HumidityBarometerVisibility
6:53 AM
Thu, Jul 28
74 °FPassing clouds.No wind91%29.89 "Hg7 mi
5:53 AM74 °FPassing clouds.3 mph91%29.88 "Hg10 mi
4:53 AM74 °FPassing clouds.No wind91%29.86 "Hg10 mi
3:53 AM74 °FPassing clouds.No wind91%29.88 "Hg10 mi
2:53 AM74 °FPassing clouds.No wind91%29.90 "Hg10 mi
1:53 AM74 °FPassing clouds.3 mph91%29.91 "Hg10 mi
12:53 AM75 °FPassing clouds.No wind88%29.93 "Hg10 mi
11:53 PM
Wed, Jul 27
74 °FClear.No wind91%29.93 "Hg10 mi
10:53 PM77 °FPassing clouds.No wind85%29.93 "Hg10 mi
9:53 PM77 °FScattered clouds.5 mph88%29.92 "Hg10 mi
8:53 PM81 °FSunny.No wind74%29.91 "Hg10 mi
7:53 PM84 °FSunny.No wind72%29.90 "Hg10 mi
6:53 PM84 °FSunny.5 mph63%29.92 "Hg10 mi
5:53 PM86 °FSunny.No wind59%29.92 "Hg10 mi
4:53 PM88 °FSunny.No wind52%29.94 "Hg10 mi
3:53 PM85 °FSunny.5 mph59%29.97 "Hg10 mi
2:53 PM87 °FSunny.3 mph50%29.98 "Hg10 mi
1:53 PM86 °FSunny.5 mph57%29.99 "Hg10 mi
12:53 PM84 °FSunny.5 mph59%29.99 "Hg10 mi
11:53 AM83 °FPassing clouds.5 mph61%30.01 "Hg10 mi
10:53 AM82 °FSunny.No wind65%30.01 "Hg10 mi
9:53 AM79 °FSunny.6 mph74%30.00 "Hg10 mi
8:53 AM73 °FSunny.No wind88%30.03 "Hg10 mi
Weather by CustomWeather, © 2016

See weather overviewHow to use our weather pages